Regional Weather Roundup
Issued by NWS

Home | Current Version | Previous Version | Text Only | Print | Product List | Glossary Off
Versions: 1 2 3 4 5 6 7 8 9 10 11 12 13 14 15 16 17 18 19 20 21 22 23 24 25 26 27 28 29 30 31 32 33 34 35 36 37 38 39 40 41 42 43 44 45 46 47 48 49 50

020
ASUS43 KLOT 250403
RWRIL

ILLINOIS REGIONAL WEATHER ROUNDUP
NATIONAL WEATHER SERVICE CHICAGO/ROMEOVILLE IL
1100 PM CDT TUE APR 24 2018

NOTE: "FAIR" INDICATES FEW OR NO CLOUDS BELOW 12,000 FEET WITH NO
SIGNIFICANT WEATHER AND/OR OBSTRUCTIONS TO VISIBILITY.

* THESE STATIONS ARE NOT UNDER NWS QUALITY CONTROL. THEY ALSO MAY NOT
  REPORT WEATHER SUCH AS PRECIPITATION OR FOG.

ILZ001-002-007-009-015-016-024-250500-
NORTHWEST ILLINOIS

CITY           SKY/WX    TMP DP  RH WIND       PRES   REMARKS
MOLINE         CLOUDY    65  38  36 NW10      30.00S
STERLING*      FAIR      51  34  52 E5        30.01R
SAVANNA*       CLOUDY    60  36  40 N5        30.02R
$$

ILZ003-004-008-010-011-017-018-250500-
NORTH CENTRAL ILLINOIS

CITY           SKY/WX    TMP DP  RH WIND       PRES   REMARKS
ROCKFORD       MOCLDY    56  45  66 NE3       30.03R
FREEPORT*      CLOUDY    51  31  45 CALM      30.04R
ROCHELLE*      FAIR      53  45  76 E3        30.02R
DE KALB*       FAIR      50  46  83 E5        30.02S
PERU*          FAIR      57  47  69 E5        30.01S
$$

ILZ005-006-012>014-019>023-250500-
NORTHEAST ILLINOIS

CITY           SKY/WX    TMP DP  RH WIND       PRES   REMARKS
CHICAGO-OHARE  FAIR      48  44  86 NE10      30.01F
CHICAGO-MIDWAY MOCLDY    50  46  86 N7        30.01S
AURORA         FAIR      51  46  83 NE6       30.01R
LANSING*       FAIR      45  45  99 N5        30.01F
JOLIET*        FAIR      53  48  84 NE5       30.00S
WAUKEGAN       FAIR      47  45  93 N8        30.02S
DUPAGE AIRPORT FAIR      50  47  89 NE7       30.01S
KANKAKEE*      FAIR      48  46  92 NE3       30.01S
WHEELING       FAIR      48  45  89 N7        30.04F
MORRIS*        FAIR      50  46  84 CALM      30.00R
ROMEOVILLE*    FAIR      50  47  88 NE7       30.01S
NORTHERLY ISL    N/A     46  44  93 NW12        N/A
$$

LMZ740>746-250500-
SOUTHERN LAKE MICHIGAN

STATION/POSITION SKY/WX   TEMP    WIND        PRES    VSBY  WAVE
                          AIR SEA DIR/SP/G                  HT/PER
                          (F)     (DEG/KT/KT) (MB)    (MI)  (FT/S)
HARRISON CRIB              41     330/ 10/ 11   N/A
BURNHAM HARBOR             45     340/  9/ 12   N/A
CALUMET HARBOR             43     330/  8/ 11 1016.0F
BURNS HARBOR               42     300/  3/  4 1016.6S
MICHIGAN CITY              43     290/  4/  4   N/A
ST. JOSEPH                 43 44  350/  8/ 10 1016.4F         1/ 3
$$

ILZ025>027-034>036-040-047-049-050-058-095>099-250500-
WEST-CENTRAL ILLINOIS

CITY           SKY/WX    TMP DP  RH WIND       PRES   REMARKS
QUINCY         MOCLDY    59  30  33 NW7       30.02S
MACOMB*        CLOUDY    52  33  49 NW8       30.03S
JACKSONVILLE*  CLOUDY    54  34  47 NW5       29.99F
PITTSFIELD*    MOCLDY    58  36  43 NW6       30.02F
$$

ILZ028>032-037-038-041>044-048-051>054-059>061-250500-
CENTRAL ILLINOIS

CITY           SKY/WX    TMP DP  RH WIND       PRES   REMARKS
PONTIAC        FAIR      47  47  99 E3        30.01S
BLOOMINGTON    FAIR      52  49  89 E5        30.01S
DECATUR        FAIR      50  50 100 CALM      30.00R FOG
PEORIA         FAIR      59  31  34 CALM      30.00R
LACON*         FAIR      57  46  67 E8        29.99S
LINCOLN*       FAIR      53  51  92 CALM      30.00R
SPRINGFIELD    FAIR      54  45  71 CALM      29.99S
TAYLORVILLE    FAIR      53  51  93 CALM      30.00S
$$

ILZ033-039-045-046-055>057-062-063-250500-
EAST-CENTRAL ILLINOIS

CITY           SKY/WX    TMP DP  RH WIND       PRES   REMARKS
CHAMPAIGN      FAIR      51  50  96 CALM      30.00S
DANVILLE*      FAIR      50  49  97 N6        29.96S
RANTOUL*       FAIR      54  53  95 CALM      29.99S
MATTOON        FAIR      50  50 100 N3        29.98S FOG
PARIS*         FAIR      49  48  95 CALM      29.99S
$$

ILZ079-100>102-250500-
SOUTHWEST ILLINOIS

CITY           SKY/WX    TMP DP  RH WIND       PRES   REMARKS
CAHOKIA*       CLEAR     50  48  93 S3        29.99F
SPARTA*        CLEAR     52  52 100 CALM      30.01F
$$

ILZ064>066-069>071-074>076-080>082-084>086-088>090-092>094-250500-
SOUTH-CENTRAL ILLINOIS

CITY           SKY/WX    TMP DP  RH WIND       PRES   REMARKS
CARBONDALE     FAIR      52  50  93 CALM      30.00F
CAIRO*         FAIR      53  52  98 CALM      30.01S
EFFINGHAM*     FAIR      49  49 100 CALM      30.01S
MARION         FAIR      52  51  98 CALM      30.01S
MT. VERNON       N/A     48  47  96 CALM      30.00S FOG
CENTRALIA*     CLEAR     52  51  97 W3        29.99S
SALEM*         FAIR      54  51  92 CALM      30.00S
METROPOLIS*    FAIR      54  53  96 CALM      30.00S
$$

ILZ067-068-072-073-078-083-087-091-250500-
SOUTHEAST ILLINOIS

CITY           SKY/WX    TMP DP  RH WIND       PRES   REMARKS
LAWRENCEVILLE  FAIR      56  54  93 MISG      29.98S
FLORA*         FAIR      53  51  94 W5        29.99S
FAIRFIELD*     FAIR      51  51 100 CALM      29.99S
HARRISBURG*    FAIR      52  52 100 CALM      30.00S
ROBINSON*      FAIR      52  52 100 CALM      29.99S FOG
CARMI*         FAIR      51  51  97 W3        29.98S
$$

ABBREVIATIONS USED IN REMARKS
   TC - TEMPERATURE IN CELSIUS
  WCI - WIND CHILL INDEX
   HX - HEAT INDEX
  VSB - VISIBILITY
$$





USA.gov is the U.S. government's official web portal to all federal, state and local government web resources and services.